Location: Township of South Roscoe
(37.9570°N, 100.1180°W)
Time: 05:42:47
(UTC+00:00)

PRISM - Pass Details

Date: 28 June 2022
Orbit: 554 x 578 km, 98.2° (Epoch: 12 August)

Event Time Altitude Azimuth Distance (km) Brightness Sun altitude
Rises 10:36:18 0° 35° (NE) 2,743 ? -8.0°
Reaches altitude 10° 10:39:21 10° 61° (ENE) 1,840 ? -7.5°
Maximum altitude 10:41:30 14° 93° (E) 1,587 ? -7.2°
Drops below altitude 10° 10:43:37 10° 126° (SE) 1,831 ? -6.9°
Sets 10:46:38 0° 152° (SSE) 2,719 ? -6.4°
